Spokane Fairchild, WA

1:09 AM PDT on June 26, 2017 (GMT -0700)
Fairchild Air Force Base

Weather History for KSKA - June, 2014

Change the Weather History Date:

Monday, June 23, 2014

  Actual Average Record
Temperature  
Mean Temperature 68 °F -  
Max Temperature 82 °F 73 °F 91 °F (2004)
Min Temperature 53 °F 49 °F 41 °F (1999)
Cooling Degree Days 2    
Growing Degree Days 18 (Base 50)    
Moisture  
Dew Point 44 °F    
Average Humidity 42    
Maximum Humidity 66    
Minimum Humidity 23    
Precipitation  
Precipitation 0.00 in - - ()
Sea Level Pressure  
Sea Level Pressure 29.95 in    
Wind  
Wind Speed 4 mph (ENE)    
Max Wind Speed 8 mph    
Max Gust Speed -    
Visibility 10 miles    
Events      
Averages and records for this station are not official NWS values.
T = Trace of Precipitation, MM = Missing Value Source: NWS Daily Summary

Daily Weather History Graph

Daily Weather History Graph

Search for Another Location

Airport or City:

Trip Planner

Search our weather history database for the weather conditions in past years. The results will help you decide how hot, cold, wet, or windy it might be!

Date:

Astronomy

Jun. 23, 2014 Rise Set
Actual Time 4:53 AM PDT 8:52 PM PDT
Civil Twilight 4:12 AM PDT 9:33 PM PDT
Nautical Twilight 3:16 AM PDT 10:29 PM PDT
Astronomical Twilight 1:44 AM PDT 12:00 AM PDT
Moon 2:34 AM PDT (6/23) 5:28 PM PDT (6/23)
Length of Visible Light 17h 20m
Length of Day
15h 59m
Waning Crescent, 12% of the Moon is Illuminated
Jun 23
Waning Crescent
Jun 27
New
Jul 5
First Quarter
Jul 12
Full
Jul 18
Last Quarter

Hourly Weather History & Observations

Time (PDT) Temp. Dew Point Humidity Pressure Visibility Wind Dir Wind Speed Gust Speed Precip Events Conditions
12:58 AM 56.5 °F 39.9 °F 54% 29.97 in 10.0 mi West 4.6 mph - N/A   Clear
1:58 AM 59.2 °F 37.9 °F 45% 29.96 in 10.0 mi NE 2.3 mph - N/A   Clear
2:58 AM 54.9 °F 40.1 °F 58% 29.97 in 10.0 mi SE 1.2 mph - N/A   Clear
3:58 AM 56.1 °F 40.1 °F 55% 29.96 in 10.0 mi Calm Calm - N/A   Clear
4:58 AM 53.8 °F 42.1 °F 65% 29.97 in 10.0 mi Calm Calm - N/A   Scattered Clouds
5:58 AM 53.8 °F 42.6 °F 66% 29.98 in 10.0 mi ENE 4.6 mph - N/A   Clear
6:58 AM 57.6 °F 45.3 °F 64% 29.99 in 10.0 mi ENE 4.6 mph - N/A   Clear
7:58 AM 62.6 °F 46.9 °F 57% 29.99 in 10.0 mi East 8.1 mph - N/A   Partly Cloudy
8:58 AM 67.5 °F 47.8 °F 49% 30.00 in 10.0 mi ENE 6.9 mph - N/A   Partly Cloudy
9:58 AM 72.0 °F 47.7 °F 42% 29.99 in 10.0 mi NE 5.8 mph - N/A   Mostly Cloudy
10:58 AM 75.4 °F 46.6 °F 36% 29.99 in 10.0 mi Variable 4.6 mph - N/A   Mostly Cloudy
11:58 AM 77.5 °F 40.5 °F 26% 29.98 in 10.0 mi NNE 4.6 mph - N/A   Clear
12:58 PM 80.4 °F 40.3 °F 24% 29.97 in 10.0 mi Variable 3.5 mph - N/A   Clear
1:58 PM 81.1 °F 41.5 °F 24% 29.95 in 10.0 mi NNW 4.6 mph - N/A   Overcast
2:58 PM 81.9 °F 40.6 °F 23% 29.94 in 10.0 mi Variable 5.8 mph - N/A   Clear
3:58 PM 82.4 °F 40.8 °F 23% 29.93 in 10.0 mi Variable 5.8 mph - N/A   Clear
4:58 PM 82.0 °F 41.4 °F 24% 29.91 in 10.0 mi SW 5.8 mph - N/A   Clear
5:58 PM 82.6 °F 41.9 °F 24% 29.90 in 10.0 mi Variable 3.5 mph - N/A   Clear
6:58 PM 81.3 °F 40.8 °F 24% 29.90 in 10.0 mi WNW 1.2 mph - N/A   Partly Cloudy
7:58 PM 78.1 °F 48.7 °F 36% 29.90 in 10.0 mi East 3.5 mph - N/A   Overcast
8:58 PM 73.9 °F 48.7 °F 41% 29.90 in 10.0 mi ESE 4.6 mph - N/A   Mostly Cloudy
9:58 PM 71.6 °F 45.5 °F 39% 29.90 in 10.0 mi East 4.6 mph - N/A   Partly Cloudy
10:58 PM 66.7 °F 49.5 °F 54% 29.91 in 10.0 mi WSW 6.9 mph - N/A   Overcast
11:58 PM 66.2 °F 48.7 °F 53% 29.90 in 10.0 mi East 4.6 mph - N/A   Overcast